Regional Weather Roundup
Issued by NWS

Home | Current Version | Previous Version | Graphics & Text | Print | Product List | Glossary On
Versions: 1 2 3 4 5 6 7 8 9 10 11 12 13 14 15 16 17 18 19 20 21 22 23 24 25 26 27 28 29 30 31 32 33 34 35 36 37 38 39 40 41 42 43 44 45 46 47 48 49 50
000
ASUS43 KFSD 190902
RWRSD

WEATHER ROUNDUP FOR SOUTH DAKOTA
NATIONAL WEATHER SERVICE SIOUX FALLS SD
400 AM CDT SAT APR 19 2014

NOTE: "FAIR" INDICATES FEW OR NO CLOUDS BELOW 12,000 FEET WITH NO
SIGNIFICANT WEATHER AND/OR OBSTRUCTIONS TO VISIBILITY.


SDZ001>005-009-010-012>017-191000-
NORTHWEST AND NORTH CENTRAL SOUTH DAKOTA

CITY           SKY/WX    TMP DP  RH WIND       PRES   REMARKS
FAITH            N/A     42  35  76 NW13      29.85S
MOBRIDGE       PTCLDY    47  36  65 NW17      29.75S
$$

SDZ012>016-024>037-041>051-057-063-072>074-191000-
SOUTHWEST AND SOUTH CENTRAL SOUTH DAKOTA

CITY           SKY/WX    TMP DP  RH WIND       PRES   REMARKS
RAPID CTY ARPT CLOUDY    46  25  43 NW16      29.89R
PIERRE         MOCLDY    49  38  65 NW21G31   29.82R
CUSTER         CLOUDY    42  34  73 N5        29.91R
ELLSWORTH AFB  CLOUDY    46  25  44 NW14      29.89R
PHILIP         PTCLDY    48  35  60 NW13      29.87R
PINE RIDGE     MOCLDY    49  39  68 N22G30    29.90R
WINNER         FAIR      61  41  47 NW18      29.85R
$$

SDZ004>011-016>023-039-040-191000-
NORTHEAST SOUTH DAKOTA

CITY           SKY/WX    TMP DP  RH WIND       PRES   REMARKS
ABERDEEN       MOCLDY    55  43  63 S20G32    29.71R
WATERTOWN      CLOUDY    53  40  61 S22       29.82R
SISSETON         N/A     46  38  73 S15       29.76F
$$

SDZ017-020-022-023-036>040-048>070-191000-
SOUTHEAST SOUTH DAKOTA

CITY           SKY/WX    TMP DP  RH WIND       PRES   REMARKS
SIOUX FALLS    CLOUDY    56  40  55 S20G31    29.93R
HURON          CLOUDY    58  42  55 S17G26    29.77R
CHAMBERLAIN      N/A     60  43  53 W12       29.80R
MITCHELL       CLOUDY    58  43  57 S17       29.81F
YANKTON        PTCLDY    55  41  58 SE13G21   29.91S
$$

ABBREVIATIONS USED IN REMARKS
   TC - TEMPERATURE IN CELSIUS
  WCI - WIND CHILL INDEX
   HX - HEAT INDEX
  VSB - VISIBILITY




USA.gov is the U.S. government's official web portal to all federal, state and local government web resources and services.